[[{"header":{"parameterUnit":"m.s-1","parameterCategory":2,"la1":30.2991,"la2":30.254,"lo1":-89.0895,"lo2":-89.0444,"dy":0.0017,"dx":0.0017,"nx":28,"ny":28,"refTime":"2025-03-26T03:00:00:Z","depth":"0","parameterNumber":2,"parameterNumberName":"U-component_of_CURRENTS"},"data":[0,0,0,0,0,0,0,0,0,0,0,0,0,0,0,0,0,0,0,0,0,0,0,0,0,0,0,0,0,0,0,0,0,0,0,0,0,0,0,0,0,0,0,0,0,0,0,0,0,0,0,0,0,0,0,0,0,0,-0.2645,-0.2647,0,-0.2728,-0.2728,-0.2728,-0.2722,-0.2721,-0.2721,-0.2721,-0.2685,-0.2685,-0.2684,0,0,0,0,0,0,0,0,0,0,0,0,0,-0.2487,-0.2489,-0.2645,-0.2647,-0.2649,-0.2728,-0.2728,-0.2728,-0.2722,-0.2721,-0.2721,-0.2721,-0.2686,-0.2685,-0.2684,0,0,0,0,0,0,0,0,0,0,0,0,0,-0.2551,-0.249,-0.2644,-0.2663,-0.2666,-0.2728,-0.2728,-0.2728,-0.2722,-0.2721,-0.2721,-0.2721,-0.2686,-0.2685,-0.2684,-0.2686,0,0,-0.2681,-0.268,0,0,0,0,0,0,0,0,-0.2548,-0.2556,-0.2658,-0.2662,-0.2666,-0.2723,-0.266,-0.2712,-0.2722,-0.269,-0.2721,-0.272,-0.2694,-0.2693,-0.2696,-0.2684,-0.2682,-0.2681,-0.268,-0.268,-0.2679,0,0,0,0,0,0,0,-0.2543,-0.2552,-0.2667,-0.2661,-0.2665,-0.267,-0.2677,-0.2669,-0.2683,-0.2692,-0.2695,-0.2721,-0.2694,-0.2697,-0.2695,-0.2682,-0.2681,-0.268,-0.2679,-0.2679,-0.2718,-0.272,0,0,0,0,0,0,-0.2555,-0.2548,-0.2664,-0.267,-0.2616,-0.2674,-0.2682,-0.2696,-0.2686,-0.2688,-0.2721,-0.2721,-0.2699,-0.2696,-0.2693,-0.2748,-0.268,-0.2679,-0.2678,-0.2717,-0.2719,-0.2721,0,0,0,0,0,0,-0.2551,-0.2564,-0.2661,-0.262,-0.2634,-0.2678,-0.2694,-0.2699,-0.271,-0.2711,-0.2708,-0.2731,-0.2698,-0.2695,-0.2712,-0.2744,-0.2678,-0.2677,-0.2715,-0.2717,-0.272,-0.2822,0,0,0,0,0,0,-0.2545,-0.2561,-0.2562,-0.2621,-0.2637,-0.2717,-0.2696,-0.2701,-0.2732,-0.2731,-0.2718,-0.2714,-0.2698,-0.2714,-0.2711,-0.2741,-0.2676,-0.2713,-0.2716,-0.2719,-0.2816,-0.2827,-0.2837,0,0,0,0,0,-0.2539,-0.2553,-0.2561,-0.2575,-0.2641,-0.272,-0.2728,-0.275,-0.2733,-0.2753,-0.2747,-0.2715,-0.2731,-0.2715,-0.2711,-0.2741,-0.2711,-0.2715,-0.2719,-0.2811,-0.2825,-0.2837,0,0,0,0,0,0,-0.2487,-0.2557,-0.2566,-0.2599,-0.2664,-0.2723,-0.2736,-0.2757,-0.2767,-0.2757,-0.2737,-0.2735,-0.2762,-0.2738,-0.272,-0.2762,-0.2715,-0.2718,-0.2787,-0.28,-0.281,-0.2807,-0.2675,0,0,0,0,0,-0.2478,-0.2498,-0.2581,-0.2605,-0.2635,-0.2683,-0.2711,-0.2742,-0.2771,-0.2775,-0.2768,-0.2761,-0.2774,-0.2776,-0.2775,-0.2797,-0.2757,-0.2813,-0.2824,-0.2833,-0.2829,-0.2833,-0.2843,-0.2733,-0.2733,-0.2733,0,0,-0.2466,-0.2505,-0.2517,-0.2595,-0.263,-0.2691,-0.2695,-0.2755,-0.2806,-0.2768,-0.2801,-0.2796,-0.2788,-0.2821,-0.283,-0.2805,-0.2837,-0.2838,-0.2845,-0.2836,-0.2838,-0.2848,-0.2858,-0.2736,-0.2735,-0.2735,0,0,-0.2459,-0.2486,-0.2504,-0.2562,-0.2643,-0.2694,-0.2718,-0.2788,-0.2815,-0.2869,-0.2852,-0.2875,-0.288,-0.2894,-0.2899,-0.2965,-0.2894,-0.2955,-0.3004,-0.301,-0.3019,-0.3026,-0.2961,-0.2962,-0.2959,-0.296,-0.296,0,-0.2437,-0.2474,-0.2525,-0.2569,-0.2616,-0.2698,-0.2747,-0.2807,-0.2875,-0.2897,-0.2892,-0.2922,-0.2923,-0.2967,-0.2997,-0.299,-0.2948,-0.296,-0.3023,-0.303,-0.3036,-0.2968,-0.2967,-0.2965,-0.2964,-0.2964,-0.2963,0,-0.2454,-0.2489,-0.2509,-0.2588,-0.265,-0.2711,-0.2817,-0.2872,-0.2913,-0.2965,-0.3018,-0.3032,-0.3041,-0.3061,-0.3052,-0.3096,-0.3035,-0.3038,-0.2991,-0.3053,-0.2977,-0.2975,-0.2973,-0.2971,-0.2969,-0.2968,0,0,-0.2383,-0.2496,-0.2498,-0.2535,-0.2664,-0.2719,-0.2819,-0.2925,-0.2969,-0.3048,-0.3083,-0.315,-0.3144,-0.3149,-0.3143,-0.3163,-0.3175,-0.3118,-0.3116,-0.3051,-0.3125,-0.3047,-0.3036,-0.3184,-0.3185,-0.3186,-0.3044,0,-0.2374,-0.2445,-0.251,-0.259,-0.2643,-0.2748,-0.2825,-0.2934,-0.3014,-0.3072,-0.3133,-0.3161,-0.3185,-0.3174,-0.3212,-0.3176,-0.3177,-0.3208,-0.3076,-0.307,-0.2994,-0.3036,-0.2948,-0.2813,-0.3041,-0.3041,-0.3041,0,-0.2365,-0.2414,-0.2481,-0.2587,-0.2614,-0.2675,-0.2796,-0.2875,-0.3003,-0.3052,-0.3121,-0.3157,-0.3205,-0.3209,-0.3207,-0.3218,-0.3178,-0.3158,-0.3152,-0.3043,-0.2991,-0.2794,-0.2799,-0.2793,-0.3036,-0.3037,-0.3037,0,-0.2291,-0.2391,-0.2437,-0.2478,-0.2617,-0.2651,-0.2717,-0.2852,-0.2915,-0.3017,-0.3051,-0.3131,-0.3134,-0.3148,-0.3139,-0.3159,-0.3104,-0.3122,-0.3011,-0.3001,-0.2881,-0.286,-0.2864,-0.3115,-0.3115,-0.3115,-0.3116,0,-0.2265,-0.2296,-0.2398,-0.2426,-0.2471,-0.2576,-0.2638,-0.2721,-0.2828,-0.2884,-0.3005,-0.3039,-0.3122,-0.3124,-0.3115,-0.3042,-0.3082,-0.3011,-0.2975,-0.291,-0.2895,-0.2846,-0.2853,-0.311,-0.3111,-0.3112,-0.3113,0,-0.2189,-0.2261,-0.2311,-0.2416,-0.2443,-0.2465,-0.2579,-0.2624,-0.2725,-0.2792,-0.2816,-0.2949,-0.2949,-0.2999,-0.2987,-0.2976,-0.2875,-0.289,-0.2775,-0.2731,-0.2638,-0.2653,-0.2547,-0.2481,-0.2741,-0.2739,-0.2737,0,-0.2158,-0.2176,-0.2269,-0.2284,-0.2324,-0.2379,-0.242,-0.255,-0.2604,-0.2729,-0.2739,-0.279,-0.2827,-0.2782,-0.2782,-0.2731,-0.2739,-0.2594,-0.2652,-0.2617,-0.2608,-0.2611,-0.2564,-0.2508,-0.2504,-0.2501,-0.2498,0,-0.2079,-0.2108,-0.2141,-0.2178,-0.221,-0.2267,-0.2328,-0.2367,-0.2504,-0.2562,-0.2616,-0.265,-0.2656,-0.2613,-0.2565,-0.2524,-0.2535,-0.2526,-0.254,-0.2466,-0.2419,-0.2342,-0.2576,-0.247,-0.2473,-0.2475,-0.2477,-0.2478,-0.1991,-0.1988,-0.2024,-0.2047,-0.2086,-0.212,-0.2118,-0.2213,-0.2269,-0.2333,-0.2433,-0.245,-0.2467,-0.2419,-0.2379,-0.2291,-0.2331,-0.2245,-0.2268,-0.2276,-0.2224,-0.2367,-0.2209,-0.221,-0.2211,-0.2212,-0.2213,0,-0.1873,-0.1879,-0.1891,-0.1913,-0.1896,-0.1971,-0.2025,-0.2008,-0.2023,-0.2141,-0.2181,-0.2238,-0.2185,-0.2209,-0.2164,-0.2081,-0.2046,-0.202,-0.2032,-0.2,-0.216,-0.2166,-0.1932,-0.1932,-0.1932,-0.1932,-0.1932,-0.1932,-0.1808,-0.177,-0.1779,-0.1708,-0.1717,-0.1657,-0.1655,-0.1666,-0.1723,-0.1781,-0.187,-0.1983,-0.2018,-0.2161,-0.2077,-0.1983,-0.1939,-0.1852,-0.1875,-0.2039,-0.2064,-0.2087,-0.2099,-0.1854,-0.1854,-0.1668,-0.1666,-0.1665]},{"header":{"parameterUnit":"m.s-1","parameterCategory":2,"la1":30.2991,"la2":30.254,"lo1":-89.0895,"lo2":-89.0444,"dy":0.0017,"dx":0.0017,"nx":28,"ny":28,"refTime":"2025-03-26T03:00:00:Z","depth":"0","parameterNumber":3,"parameterNumberName":"V-component_of_CURRENTS"},"data":[0,0,0,0,0,0,0,0,0,0,0,0,0,0,0,0,0,0,0,0,0,0,0,0,0,0,0,0,0,0,0,0,0,0,0,0,0,0,0,0,0,0,0,0,0,0,0,0,0,0,0,0,0,0,0,0,0,0,-0.0059,-0.0057,0,0.0064,0.0066,0.0067,0.0126,0.0125,0.0125,0.0125,0.0264,0.0268,0.0271,0,0,0,0,0,0,0,0,0,0,0,0,0,-0.0163,-0.0162,-0.0059,-0.0057,-0.0056,0.0064,0.0066,0.0067,0.0126,0.0125,0.0125,0.0125,0.0263,0.0267,0.0272,0,0,0,0,0,0,0,0,0,0,0,0,0,-0.0087,-0.0162,-0.0059,-0.0013,-0.0007,0.0063,0.0066,0.0068,0.0126,0.0125,0.0125,0.0125,0.0261,0.0267,0.0272,0.0311,0,0,0.029,0.0292,0,0,0,0,0,0,0,0,-0.0091,-0.0083,-0.0021,-0.0016,-0.001,0.0079,0.008,0.015,0.0126,0.0076,0.0125,0.0125,0.0203,0.0214,0.0238,0.0317,0.0323,0.029,0.0294,0.0296,0.0298,0,0,0,0,0,0,0,-0.0097,-0.0087,-0.0009,-0.0019,-0.0012,0.0029,0.0039,0.0093,0.014,0.008,0.0085,0.0097,0.0207,0.0232,0.0241,0.0325,0.029,0.0295,0.0299,0.0301,0.0483,0.0484,0,0,0,0,0,0,-0.0117,-0.0093,-0.0013,-0.0006,-0.0052,0.0031,0.0042,0.0051,0.0139,0.0152,0.0097,0.01,0.0222,0.0235,0.0247,0.0312,0.0296,0.0301,0.0305,0.0482,0.0483,0.0485,0,0,0,0,0,0,-0.012,-0.0111,-0.0018,-0.0047,-0.0032,0.0032,0.0042,0.0054,0.0079,0.0152,0.0165,0.011,0.0223,0.0239,0.0305,0.0317,0.0304,0.0309,0.048,0.0482,0.0484,0.0433,0,0,0,0,0,0,-0.0123,-0.0113,-0.0116,-0.0048,-0.0031,0.0017,0.0043,0.0056,0.0087,0.0091,0.0167,0.018,0.0224,0.0297,0.0311,0.0325,0.0314,0.0478,0.0481,0.0483,0.0433,0.0433,0.0434,0,0,0,0,0,-0.0128,-0.0137,-0.0117,-0.0107,-0.0037,0.0017,0.0029,0.0075,0.0087,0.0097,0.0158,0.0178,0.0324,0.0302,0.0319,0.0334,0.0477,0.048,0.0483,0.0433,0.0433,0.0434,0,0,0,0,0,0,-0.0185,-0.013,-0.0107,-0.0099,-0.0047,0.0026,0.0035,0.0071,0.0128,0.0129,0.0197,0.0215,0.0279,0.0319,0.0293,0.0398,0.0404,0.041,0.036,0.0361,0.0361,0.0328,0.0318,0,0,0,0,0,-0.0199,-0.0193,-0.0125,-0.0119,-0.0098,-0.0031,-0.0005,0.003,0.0089,0.0113,0.017,0.0237,0.0307,0.034,0.0402,0.0457,0.0482,0.048,0.048,0.048,0.0467,0.0533,0.0537,0.0496,0.0495,0.0495,0,0,-0.0221,-0.0189,-0.0186,-0.013,-0.009,-0.0062,-0.0016,0.0018,0.0049,0.012,0.0173,0.0239,0.0323,0.0388,0.042,0.042,0.0503,0.0484,0.0483,0.047,0.0537,0.054,0.0544,0.0498,0.0497,0.0497,0,0,-0.0262,-0.0232,-0.0238,-0.02,-0.0143,-0.0093,-0.0086,-0.0012,0.0028,0.0093,0.0156,0.0228,0.0324,0.0391,0.0437,0.0478,0.0503,0.0499,0.0472,0.0536,0.0539,0.0542,0.0558,0.0563,0.0497,0.0497,0.0497,0,-0.0291,-0.0286,-0.023,-0.0222,-0.02,-0.0112,-0.0108,-0.0046,0.0043,0.0078,0.0099,0.0257,0.0327,0.0418,0.0436,0.0476,0.0498,0.0458,0.0533,0.0537,0.0541,0.0557,0.0563,0.0495,0.0495,0.0496,0.0496,0,-0.0328,-0.0323,-0.0324,-0.0283,-0.0249,-0.0231,-0.0143,-0.0095,-0.0036,0.003,0.0126,0.0231,0.0318,0.0364,0.0414,0.0486,0.0486,0.0523,0.052,0.0541,0.0558,0.0565,0.0492,0.0493,0.0494,0.0494,0,0,-0.0389,-0.0359,-0.0358,-0.0359,-0.0284,-0.0261,-0.0202,-0.0122,-0.0088,0.0017,0.0068,0.0209,0.026,0.0317,0.0396,0.0461,0.0512,0.0495,0.0499,0.0489,0.0616,0.0614,0.0622,0.0559,0.0561,0.0562,0.0607,0,-0.0433,-0.0454,-0.0414,-0.0418,-0.0419,-0.033,-0.0286,-0.0201,-0.0114,-0.0038,0.0093,0.0172,0.0247,0.0285,0.0365,0.0483,0.0532,0.0493,0.0617,0.0619,0.0599,0.0631,0.0659,0.0702,0.0614,0.0616,0.0617,0,-0.0476,-0.0486,-0.0514,-0.0494,-0.0486,-0.0468,-0.0392,-0.0341,-0.0201,-0.0137,-0.0029,0.0073,0.0199,0.0253,0.0438,0.0407,0.0496,0.0581,0.0586,0.0605,0.0632,0.0676,0.0719,0.0878,0.0628,0.0627,0.0626,0,-0.0549,-0.0551,-0.0583,-0.0576,-0.0533,-0.0524,-0.0488,-0.0375,-0.0332,-0.0202,-0.0163,0.0003,0.0085,0.0231,0.0412,0.0424,0.0597,0.0639,0.0713,0.0712,0.077,0.0772,0.0964,0.0749,0.0749,0.0749,0.0748,0,-0.0608,-0.0629,-0.0626,-0.0641,-0.067,-0.0611,-0.0603,-0.0535,-0.044,-0.0391,-0.0231,-0.0161,0.0087,0.0228,0.0379,0.056,0.0571,0.0704,0.0734,0.0751,0.0751,0.0919,0.0972,0.075,0.075,0.075,0.0749,0,-0.0674,-0.067,-0.071,-0.0705,-0.0707,-0.0727,-0.0693,-0.0676,-0.0583,-0.0516,-0.0481,-0.0275,-0.0083,0.0138,0.0384,0.0512,0.0765,0.0738,0.0715,0.0742,0.096,0.1007,0.1171,0.1229,0.0829,0.0829,0.0829,0,-0.0709,-0.0739,-0.0775,-0.0807,-0.081,-0.0826,-0.0829,-0.0753,-0.0725,-0.0582,-0.0554,-0.0357,-0.0187,0.0148,0.0414,0.0661,0.0788,0.0808,0.0852,0.0975,0.1052,0.1078,0.1118,0.0901,0.0902,0.0903,0.0903,0,-0.0774,-0.0787,-0.0823,-0.0899,-0.093,-0.0955,-0.095,-0.095,-0.0842,-0.0769,-0.0636,-0.0494,-0.0147,0.0183,0.0501,0.0653,0.0906,0.0829,0.0995,0.115,0.1156,0.1225,0.0831,0.091,0.0909,0.0909,0.0909,0.0908,-0.0816,-0.0865,-0.0919,-0.0985,-0.103,-0.1065,-0.1078,-0.104,-0.0992,-0.0849,-0.0712,-0.0464,0.0007,0.0485,0.0645,0.1012,0.0978,0.1147,0.1196,0.1213,0.1276,0.086,0.0953,0.0952,0.0952,0.0952,0.0952,0,-0.0866,-0.092,-0.0997,-0.1072,-0.1137,-0.1133,-0.114,-0.1115,-0.1053,-0.0871,-0.0706,-0.0179,0.0269,0.0688,0.1206,0.1394,0.1429,0.1489,0.1573,0.1598,0.1284,0.1296,0.1421,0.1421,0.1421,0.1421,0.1421,0.142,-0.0893,-0.0979,-0.1024,-0.1145,-0.1195,-0.1243,-0.1244,-0.1174,-0.1042,-0.0728,-0.0412,-0.0153,0.0463,0.1291,0.1761,0.179,0.1946,0.1912,0.1986,0.1821,0.1795,0.1769,0.1799,0.2028,0.2028,0.2298,0.2301,0.2303]}],[{"header":{"parameterUnit":"m.s-1","parameterCategory":2,"la1":30.2991,"la2":30.254,"lo1":-89.0895,"lo2":-89.0444,"dy":0.0017,"dx":0.0017,"nx":28,"ny":28,"refTime":"2025-03-26T03:00:00:Z","depth":"2","parameterNumber":2,"parameterNumberName":"U-component_of_CURRENTS"},"data":[0,0,0,0,0,0,0,0,0,0,0,0,0,0,0,0,0,0,0,0,0,0,0,0,0,0,0,0,0,0,0,0,0,0,0,0,0,0,0,0,0,0,0,0,0,0,0,0,0,0,0,0,0,0,0,0,0,0,-0.2346,-0.2347,0,-0.2386,-0.2386,-0.2386,-0.242,-0.2421,-0.2422,-0.2423,-0.2442,-0.2441,-0.2441,0,0,0,0,0,0,0,0,0,0,0,0,0,-0.2247,-0.2248,-0.2346,-0.2347,-0.2349,-0.2386,-0.2386,-0.2386,-0.242,-0.2421,-0.2422,-0.2424,-0.2442,-0.2442,-0.2441,0,0,0,0,0,0,0,0,0,0,0,0,0,-0.2282,-0.2249,-0.2346,-0.2375,-0.2379,-0.2386,-0.2386,-0.2385,-0.242,-0.2421,-0.2423,-0.2424,-0.2442,-0.2442,-0.2441,-0.2406,0,0,-0.2439,-0.2438,0,0,0,0,0,0,0,0,-0.228,-0.2285,-0.237,-0.2373,-0.2378,-0.2406,-0.2358,-0.2394,-0.2419,-0.2397,-0.2423,-0.2425,-0.2431,-0.2432,-0.2426,-0.2406,-0.2407,-0.2439,-0.2438,-0.2438,-0.2438,0,0,0,0,0,0,0,-0.2278,-0.2283,-0.2355,-0.2371,-0.2376,-0.2369,-0.2375,-0.2364,-0.2399,-0.2399,-0.2403,-0.2418,-0.2432,-0.2426,-0.2427,-0.2408,-0.2439,-0.2438,-0.2438,-0.2437,-0.2501,-0.2503,0,0,0,0,0,0,-0.2288,-0.2281,-0.2354,-0.2357,-0.2339,-0.237,-0.2377,-0.2389,-0.24,-0.2405,-0.2417,-0.242,-0.2427,-0.2427,-0.2428,-0.2499,-0.2438,-0.2437,-0.2437,-0.2499,-0.2501,-0.2504,0,0,0,0,0,0,-0.2286,-0.2294,-0.2352,-0.2325,-0.2333,-0.2371,-0.2384,-0.239,-0.2406,-0.2415,-0.2419,-0.2432,-0.2428,-0.2429,-0.2431,-0.2496,-0.2437,-0.2436,-0.2496,-0.25,-0.2502,-0.257,0,0,0,0,0,0,-0.2283,-0.2293,-0.2298,-0.2326,-0.2336,-0.2389,-0.2384,-0.2389,-0.2415,-0.242,-0.2428,-0.2431,-0.2429,-0.2432,-0.243,-0.2494,-0.2436,-0.2494,-0.2498,-0.2501,-0.2565,-0.2575,-0.2583,0,0,0,0,0,-0.2279,-0.2293,-0.2297,-0.2307,-0.2344,-0.2391,-0.2395,-0.2421,-0.2415,-0.2437,-0.2425,-0.2432,-0.2459,-0.2431,-0.2429,-0.2495,-0.2492,-0.2497,-0.2501,-0.2561,-0.2573,-0.2583,0,0,0,0,0,0,-0.2254,-0.2299,-0.2305,-0.2331,-0.2372,-0.2401,-0.2413,-0.2427,-0.2432,-0.2432,-0.2425,-0.2426,-0.2462,-0.2459,-0.243,-0.2528,-0.249,-0.2494,-0.2536,-0.2547,-0.2556,-0.2551,-0.2435,0,0,0,0,0,-0.2249,-0.2267,-0.2317,-0.2335,-0.2354,-0.2379,-0.2396,-0.2425,-0.2438,-0.2443,-0.2447,-0.2458,-0.2475,-0.2493,-0.25,-0.253,-0.2499,-0.2583,-0.2592,-0.26,-0.2597,-0.2611,-0.262,-0.2519,-0.2519,-0.2519,0,0,-0.2242,-0.2269,-0.2278,-0.233,-0.2349,-0.2388,-0.2392,-0.2436,-0.2475,-0.2441,-0.2473,-0.2476,-0.2485,-0.253,-0.2551,-0.254,-0.2607,-0.2606,-0.2612,-0.2605,-0.2617,-0.2626,-0.2635,-0.2522,-0.2522,-0.2521,0,0,-0.224,-0.2262,-0.2278,-0.2317,-0.2371,-0.24,-0.2419,-0.2464,-0.2493,-0.2522,-0.2518,-0.255,-0.2568,-0.2601,-0.2614,-0.2675,-0.2644,-0.27,-0.2753,-0.2768,-0.2776,-0.2782,-0.2722,-0.2723,-0.2719,-0.2719,-0.2719,0,-0.2227,-0.2257,-0.2292,-0.2325,-0.2356,-0.2408,-0.2443,-0.2484,-0.2528,-0.2554,-0.255,-0.2587,-0.2608,-0.266,-0.2702,-0.2699,-0.2668,-0.2708,-0.2778,-0.2784,-0.279,-0.2727,-0.2727,-0.2723,-0.2722,-0.2722,-0.2722,0,-0.224,-0.2271,-0.2287,-0.2342,-0.2385,-0.2428,-0.2499,-0.2544,-0.2578,-0.2623,-0.2677,-0.2684,-0.2712,-0.275,-0.2746,-0.2816,-0.2764,-0.2774,-0.2744,-0.2804,-0.2733,-0.2732,-0.2728,-0.2727,-0.2726,-0.2725,0,0,-0.2183,-0.2276,-0.2278,-0.2309,-0.24,-0.2436,-0.2512,-0.2596,-0.2634,-0.2699,-0.2733,-0.2806,-0.2814,-0.2829,-0.2837,-0.2871,-0.2891,-0.2851,-0.285,-0.2779,-0.2863,-0.2782,-0.2771,-0.2913,-0.2914,-0.2915,-0.2784,0,-0.2176,-0.2235,-0.2288,-0.2348,-0.2387,-0.2465,-0.2523,-0.2613,-0.2675,-0.2725,-0.2785,-0.2815,-0.2846,-0.2847,-0.2896,-0.2885,-0.2896,-0.2921,-0.2826,-0.2821,-0.2735,-0.2772,-0.2593,-0.2458,-0.2782,-0.2782,-0.2782,0,-0.2164,-0.2207,-0.2263,-0.2355,-0.2375,-0.242,-0.2511,-0.2572,-0.2681,-0.2725,-0.2788,-0.2819,-0.288,-0.2884,-0.2906,-0.2916,-0.29,-0.2889,-0.2884,-0.2785,-0.2741,-0.246,-0.2443,-0.2779,-0.2779,-0.2779,-0.2779,0,-0.2101,-0.2188,-0.2229,-0.2262,-0.2374,-0.2406,-0.2459,-0.2569,-0.2623,-0.2708,-0.2739,-0.2812,-0.2822,-0.2846,-0.2856,-0.2879,-0.284,-0.2864,-0.276,-0.275,-0.2566,-0.2539,-0.2869,-0.287,-0.287,-0.287,-0.2871,0,-0.2076,-0.2105,-0.22,-0.2223,-0.2265,-0.2353,-0.2407,-0.2473,-0.2563,-0.2615,-0.2717,-0.2738,-0.2821,-0.2826,-0.2832,-0.2775,-0.2819,-0.2757,-0.2727,-0.2581,-0.2559,-0.2823,-0.282,-0.2865,-0.2866,-0.2867,-0.2868,0,-0.2006,-0.2072,-0.2119,-0.2215,-0.224,-0.2263,-0.2366,-0.2402,-0.2492,-0.2547,-0.257,-0.2681,-0.2686,-0.2723,-0.2728,-0.2717,-0.2682,-0.2645,-0.2433,-0.2383,-0.2576,-0.2578,-0.2513,-0.2509,-0.2506,-0.2503,-0.2501,0,-0.1977,-0.1994,-0.2083,-0.2099,-0.2137,-0.2192,-0.2228,-0.2345,-0.2387,-0.25,-0.2507,-0.2554,-0.2577,-0.2538,-0.2525,-0.2473,-0.2566,-0.2259,-0.2305,-0.2569,-0.2547,-0.2554,-0.256,-0.2056,-0.205,-0.2046,-0.2042,0,-0.1902,-0.1932,-0.1964,-0.2003,-0.2036,-0.2087,-0.2145,-0.2179,-0.2301,-0.2349,-0.2394,-0.2418,-0.2414,-0.2309,-0.2253,-0.2207,-0.2264,-0.2164,-0.249,-0.2198,-0.2136,-0.2116,-0.2137,-0.2001,-0.2005,-0.2008,-0.2011,-0.2012,-0.1821,-0.182,-0.1857,-0.1883,-0.1922,-0.1952,-0.1948,-0.203,-0.2075,-0.2113,-0.2208,-0.2169,-0.2171,-0.2021,-0.1936,-0.1871,-0.2036,-0.1944,-0.1959,-0.1979,-0.1974,-0.1913,-0.173,-0.1732,-0.1734,-0.1736,-0.1738,0,-0.1709,-0.1719,-0.1734,-0.1758,-0.1745,-0.1817,-0.1861,-0.1834,-0.1834,-0.1899,-0.1918,-0.1737,-0.1679,-0.1682,-0.1548,-0.1533,-0.1533,-0.1449,-0.1452,-0.1492,-0.1528,-0.1503,-0.1132,-0.113,-0.1128,-0.1127,0,0,-0.1649,-0.1615,-0.1626,-0.1564,-0.1578,-0.152,-0.1515,-0.1501,-0.1515,-0.1474,-0.1454,-0.1581,-0.1628,-0.1373,-0.1324,-0.121,-0.1334,-0.1147,-0.1631,-0.1674,-0.1708,-0.1809,-0.1815,0,0,0,0,0]},{"header":{"parameterUnit":"m.s-1","parameterCategory":2,"la1":30.2991,"la2":30.254,"lo1":-89.0895,"lo2":-89.0444,"dy":0.0017,"dx":0.0017,"nx":28,"ny":28,"refTime":"2025-03-26T03:00:00:Z","depth":"2","parameterNumber":3,"parameterNumberName":"V-component_of_CURRENTS"},"data":[0,0,0,0,0,0,0,0,0,0,0,0,0,0,0,0,0,0,0,0,0,0,0,0,0,0,0,0,0,0,0,0,0,0,0,0,0,0,0,0,0,0,0,0,0,0,0,0,0,0,0,0,0,0,0,0,0,0,-0.0134,-0.0134,0,-0.0059,-0.0059,-0.0058,-0.0008,-0.0007,-0.0007,-0.0007,0.011,0.0113,0.0116,0,0,0,0,0,0,0,0,0,0,0,0,0,-0.021,-0.0209,-0.0135,-0.0134,-0.0133,-0.006,-0.0059,-0.0058,-0.0008,-0.0007,-0.0007,-0.0007,0.0109,0.0112,0.0116,0,0,0,0,0,0,0,0,0,0,0,0,0,-0.016,-0.0208,-0.0135,-0.0099,-0.0095,-0.006,-0.0059,-0.0057,-0.0008,-0.0007,-0.0007,-0.0006,0.0108,0.0112,0.0116,0.0133,0,0,0.0129,0.0131,0,0,0,0,0,0,0,0,-0.0163,-0.0157,-0.0105,-0.0102,-0.0097,-0.0043,-0.0042,0.0008,-0.0008,-0.0041,-0.0007,-0.0006,0.0062,0.007,0.0083,0.0138,0.0143,0.013,0.0132,0.0134,0.0135,0,0,0,0,0,0,0,-0.0166,-0.016,-0.0105,-0.0104,-0.0099,-0.0078,-0.0071,-0.0032,0.0008,-0.0038,-0.0034,-0.0026,0.0065,0.0079,0.0086,0.0145,0.0129,0.0133,0.0136,0.0137,0.0301,0.0303,0,0,0,0,0,0,-0.0178,-0.0163,-0.0107,-0.0102,-0.013,-0.0078,-0.0069,-0.006,0.0007,0.0017,-0.0027,-0.0024,0.0071,0.0081,0.0091,0.0148,0.0134,0.0138,0.014,0.0299,0.0301,0.0303,0,0,0,0,0,0,-0.018,-0.0173,-0.011,-0.0131,-0.0122,-0.0077,-0.0067,-0.0059,-0.0041,0.0015,0.0026,-0.0016,0.0072,0.0085,0.012,0.0151,0.014,0.0144,0.0297,0.03,0.0302,0.024,0,0,0,0,0,0,-0.0182,-0.0175,-0.0176,-0.0132,-0.0121,-0.009,-0.0067,-0.0058,-0.0037,-0.0033,0.0027,0.0039,0.0074,0.0113,0.0124,0.0157,0.0147,0.0295,0.0298,0.0301,0.024,0.024,0.0241,0,0,0,0,0,-0.0185,-0.0193,-0.0177,-0.017,-0.0123,-0.0091,-0.0083,-0.0049,-0.0037,-0.0031,0.0004,0.0037,0.0145,0.0116,0.0129,0.0164,0.0293,0.0297,0.0301,0.024,0.024,0.0241,0,0,0,0,0,0,-0.023,-0.0187,-0.0169,-0.0163,-0.0129,-0.0082,-0.0078,-0.0052,-0.0019,-0.0016,0.0035,0.0049,0.0097,0.0141,0.0109,0.0228,0.0235,0.0242,0.0184,0.0185,0.0186,0.0157,0.015,0,0,0,0,0,-0.024,-0.0234,-0.0185,-0.0183,-0.0167,-0.0122,-0.0106,-0.008,-0.0044,-0.0029,0.0015,0.0072,0.0125,0.0158,0.0205,0.0255,0.0281,0.0299,0.0299,0.0299,0.0288,0.0355,0.0359,0.0317,0.0317,0.0317,0,0,-0.0259,-0.0234,-0.0232,-0.0192,-0.0164,-0.0148,-0.0111,-0.0089,-0.007,-0.0021,0.0012,0.0063,0.0136,0.0191,0.0222,0.023,0.0322,0.0304,0.0302,0.0292,0.036,0.0364,0.0367,0.032,0.0319,0.0319,0,0,-0.0297,-0.0269,-0.0275,-0.0247,-0.0206,-0.0172,-0.0166,-0.0114,-0.0085,-0.0048,0.0,0.0058,0.0137,0.0196,0.0236,0.0271,0.0313,0.0312,0.0296,0.0362,0.0365,0.0368,0.0381,0.0385,0.0322,0.0322,0.0322,0,-0.0322,-0.0319,-0.0273,-0.0267,-0.0253,-0.0186,-0.0187,-0.0144,-0.0086,-0.006,-0.0043,0.0079,0.014,0.0213,0.0236,0.027,0.0297,0.0278,0.0358,0.0362,0.0366,0.0379,0.0385,0.032,0.032,0.032,0.032,0,-0.0358,-0.0355,-0.0356,-0.0325,-0.0301,-0.0291,-0.0225,-0.0189,-0.0144,-0.0095,-0.0022,0.0054,0.0129,0.0178,0.0216,0.0294,0.0297,0.0335,0.0341,0.0365,0.0378,0.0385,0.0316,0.0317,0.0318,0.0318,0,0,-0.0416,-0.039,-0.0389,-0.0392,-0.0332,-0.0319,-0.0276,-0.0219,-0.0193,-0.0113,-0.0078,0.0036,0.0083,0.0133,0.0203,0.0273,0.0324,0.0317,0.0322,0.0302,0.0433,0.0439,0.0447,0.0379,0.038,0.0382,0.0419,0,-0.0459,-0.0481,-0.0444,-0.0455,-0.0459,-0.0385,-0.0355,-0.0289,-0.0221,-0.0165,-0.0059,0.0001,0.0068,0.0103,0.0184,0.0292,0.0345,0.0308,0.0438,0.044,0.0421,0.0458,0.0426,0.0459,0.0427,0.0428,0.0429,0,-0.0501,-0.0512,-0.0541,-0.0526,-0.0519,-0.0508,-0.0451,-0.0413,-0.0302,-0.0249,-0.0163,-0.0081,0.003,0.0083,0.0255,0.0229,0.032,0.04,0.0404,0.0436,0.0462,0.0441,0.0474,0.0441,0.044,0.0439,0.0438,0,-0.0572,-0.0576,-0.0608,-0.0602,-0.0569,-0.0562,-0.0534,-0.0442,-0.041,-0.0305,-0.0271,-0.0134,-0.0062,0.0075,0.0246,0.0256,0.0422,0.0458,0.0537,0.0536,0.0547,0.0545,0.0568,0.0568,0.0568,0.0568,0.0568,0,-0.0629,-0.0651,-0.0648,-0.0665,-0.0694,-0.064,-0.0638,-0.0582,-0.0503,-0.0463,-0.0328,-0.027,-0.0052,0.0076,0.0218,0.0392,0.0401,0.0529,0.0559,0.0524,0.052,0.0543,0.0539,0.0569,0.0569,0.0568,0.0568,0,-0.0694,-0.069,-0.073,-0.0727,-0.0729,-0.075,-0.0719,-0.0708,-0.0624,-0.0571,-0.0542,-0.036,-0.0182,0.0009,0.0239,0.0354,0.0515,0.057,0.0487,0.0508,0.0582,0.0576,0.0657,0.0658,0.0658,0.0659,0.0659,0,-0.0728,-0.0757,-0.0793,-0.0823,-0.0827,-0.0843,-0.0848,-0.0778,-0.0755,-0.0623,-0.0601,-0.0419,-0.0266,0.0042,0.0279,0.0502,0.0528,0.0587,0.0619,0.0577,0.0598,0.059,0.0583,0.0594,0.0594,0.0594,0.0594,0,-0.0793,-0.0805,-0.084,-0.0912,-0.0942,-0.0965,-0.0961,-0.096,-0.0861,-0.0792,-0.0666,-0.0536,-0.0221,0.005,0.0339,0.0468,0.0551,0.0593,0.0597,0.0578,0.0523,0.0541,0.0536,0.0594,0.0594,0.0594,0.0594,0.0594,-0.0834,-0.0882,-0.0933,-0.0995,-0.1039,-0.1069,-0.1081,-0.1042,-0.0994,-0.0858,-0.0732,-0.051,-0.0241,0.0187,0.0386,0.0572,0.0588,0.064,0.0639,0.0638,0.0626,0.0575,0.065,0.065,0.0651,0.0651,0.0651,0,-0.0884,-0.0936,-0.1009,-0.108,-0.1141,-0.1136,-0.114,-0.1113,-0.1048,-0.0881,-0.0724,-0.0434,-0.012,0.0149,0.0451,0.063,0.0624,0.0646,0.0611,0.061,0.061,0.0596,0.0613,0.0613,0.0614,0.0614,0,0,-0.0911,-0.0994,-0.1035,-0.1149,-0.1197,-0.1242,-0.1241,-0.1165,-0.1041,-0.0868,-0.0686,-0.0439,-0.0102,0.0097,0.0326,0.0481,0.0494,0.0487,0.05,0.0431,0.0429,0.0591,0.0567,0,0,0,0,0]}],[{"header":{"parameterUnit":"m.s-1","parameterCategory":2,"la1":30.2991,"la2":30.254,"lo1":-89.0895,"lo2":-89.0444,"dy":0.0017,"dx":0.0017,"nx":28,"ny":28,"refTime":"2025-03-26T03:00:00:Z","depth":"4","parameterNumber":2,"parameterNumberName":"U-component_of_CURRENTS"},"data":[0,0,0,0,0,0,0,0,0,0,0,0,0,0,0,0,0,0,0,0,0,0,0,0,0,0,0,0,0,0,0,0,0,0,0,0,0,0,0,0,0,0,0,0,0,0,0,0,0,0,0,0,0,0,0,0,0,0,-0.1487,-0.1486,0,-0.1377,-0.1376,-0.1375,-0.1363,-0.1364,-0.1365,-0.1366,-0.1259,-0.1256,-0.1252,0,0,0,0,0,0,0,0,0,0,0,0,0,-0.1506,-0.1508,-0.1488,-0.1486,-0.1484,-0.1377,-0.1376,-0.1375,-0.1363,-0.1364,-0.1365,-0.1366,-0.126,-0.1256,-0.1252,0,0,0,0,0,0,0,0,0,0,0,0,0,-0.1461,-0.1508,-0.1488,-0.1463,-0.146,-0.1377,-0.1376,-0.1374,-0.1363,-0.1364,-0.1365,-0.1367,-0.1262,-0.1257,-0.1251,-0.1192,0,0,-0.1235,-0.1232,0,0,0,0,0,0,0,0,-0.1464,-0.1461,-0.1469,-0.1465,-0.1461,-0.1382,-0.1343,-0.1312,-0.1362,-0.1403,-0.1366,-0.1367,-0.1298,-0.129,-0.127,-0.1187,-0.1182,-0.1234,-0.1231,-0.1228,-0.1227,0,0,0,0,0,0,0,-0.1467,-0.1464,-0.1447,-0.1467,-0.1462,-0.1395,-0.1392,-0.1337,-0.1347,-0.1399,-0.1398,-0.138,-0.1296,-0.1275,-0.1267,-0.1181,-0.1234,-0.1229,-0.1226,-0.1224,-0.1141,-0.1142,0,0,0,0,0,0,-0.1483,-0.1468,-0.145,-0.1443,-0.1462,-0.1394,-0.1391,-0.1409,-0.1347,-0.1338,-0.1379,-0.138,-0.1284,-0.1274,-0.1264,-0.1289,-0.1228,-0.1223,-0.122,-0.114,-0.1141,-0.1142,0,0,0,0,0,0,-0.1484,-0.1484,-0.1455,-0.1448,-0.144,-0.1394,-0.1413,-0.1406,-0.1408,-0.1331,-0.1323,-0.1391,-0.1285,-0.1271,-0.126,-0.1281,-0.1221,-0.1216,-0.1139,-0.114,-0.1142,-0.1275,0,0,0,0,0,0,-0.1486,-0.1486,-0.1512,-0.1451,-0.144,-0.1427,-0.1411,-0.1403,-0.1392,-0.1393,-0.1338,-0.1328,-0.1285,-0.1269,-0.1255,-0.1272,-0.1212,-0.1137,-0.1139,-0.1141,-0.1269,-0.1281,-0.1291,0,0,0,0,0,-0.1488,-0.1514,-0.1515,-0.1513,-0.1478,-0.1427,-0.1416,-0.1387,-0.1392,-0.1395,-0.1379,-0.1331,-0.1271,-0.1266,-0.1249,-0.1265,-0.1136,-0.1139,-0.1141,-0.1264,-0.1279,-0.1291,0,0,0,0,0,0,-0.152,-0.1512,-0.1514,-0.1534,-0.1495,-0.1424,-0.1427,-0.1401,-0.1387,-0.1404,-0.1343,-0.1332,-0.1333,-0.1277,-0.1273,-0.1247,-0.1195,-0.1194,-0.1294,-0.1307,-0.1318,-0.1338,-0.1207,0,0,0,0,0,-0.1543,-0.1574,-0.1532,-0.1545,-0.1542,-0.1491,-0.1472,-0.1449,-0.1418,-0.1414,-0.138,-0.1347,-0.1322,-0.1302,-0.1268,-0.1244,-0.122,-0.1243,-0.1254,-0.1264,-0.1269,-0.1265,-0.1277,-0.115,-0.115,-0.115,0,0,-0.155,-0.1554,-0.1566,-0.1555,-0.1535,-0.1526,-0.1486,-0.1469,-0.1459,-0.1402,-0.1409,-0.1387,-0.1328,-0.1322,-0.1313,-0.128,-0.1292,-0.1267,-0.1276,-0.1276,-0.1269,-0.1282,-0.1293,-0.1152,-0.1151,-0.1151,0,0,-0.1564,-0.1599,-0.1623,-0.1614,-0.1593,-0.1561,-0.1565,-0.1522,-0.1514,-0.1501,-0.1476,-0.1477,-0.1416,-0.1393,-0.1368,-0.141,-0.1359,-0.1394,-0.1453,-0.1451,-0.1461,-0.1471,-0.1484,-0.1493,-0.1389,-0.1389,-0.1389,0,-0.1573,-0.1606,-0.1611,-0.1631,-0.1631,-0.1589,-0.1598,-0.1572,-0.1527,-0.1524,-0.1525,-0.1494,-0.145,-0.1445,-0.147,-0.1435,-0.1433,-0.1413,-0.1467,-0.1476,-0.1483,-0.1494,-0.1502,-0.1396,-0.1395,-0.1395,-0.1394,0,-0.1587,-0.1631,-0.1646,-0.1674,-0.1675,-0.1674,-0.1649,-0.1653,-0.1646,-0.1608,-0.1622,-0.1592,-0.157,-0.1562,-0.1528,-0.1555,-0.154,-0.1495,-0.1441,-0.1504,-0.1511,-0.1518,-0.1406,-0.1403,-0.1401,-0.14,0,0,-0.1555,-0.1642,-0.1648,-0.1683,-0.1706,-0.1695,-0.172,-0.1701,-0.1716,-0.1696,-0.1712,-0.1696,-0.1688,-0.1661,-0.1633,-0.1635,-0.1694,-0.1597,-0.1593,-0.1623,-0.1713,-0.1611,-0.1608,-0.1667,-0.1668,-0.1669,-0.1709,0,-0.1558,-0.1615,-0.166,-0.1705,-0.1731,-0.1754,-0.1777,-0.1767,-0.1762,-0.1767,-0.1743,-0.1747,-0.1717,-0.1735,-0.1734,-0.1698,-0.1713,-0.1689,-0.1635,-0.1634,-0.1545,-0.1611,-0.1673,-0.1713,-0.1714,-0.1715,-0.1716,0,-0.1542,-0.159,-0.1651,-0.1743,-0.176,-0.1787,-0.1839,-0.185,-0.1851,-0.1859,-0.187,-0.1844,-0.1851,-0.182,-0.1812,-0.1803,-0.1777,-0.1753,-0.1753,-0.1611,-0.1542,-0.1627,-0.1727,-0.1726,-0.1725,-0.1724,-0.1724,0,-0.1485,-0.158,-0.1635,-0.1664,-0.1754,-0.18,-0.1839,-0.1872,-0.1889,-0.1919,-0.1942,-0.1937,-0.1946,-0.192,-0.187,-0.185,-0.1859,-0.181,-0.1703,-0.1696,-0.1717,-0.1706,-0.1818,-0.1818,-0.1818,-0.1818,-0.1818,0,-0.1453,-0.1499,-0.162,-0.1646,-0.1711,-0.1792,-0.1853,-0.1895,-0.1951,-0.1953,-0.1985,-0.199,-0.1975,-0.196,-0.1909,-0.1828,-0.1887,-0.1731,-0.1699,-0.1775,-0.177,-0.1724,-0.1712,-0.182,-0.1819,-0.1819,-0.1819,0,-0.1375,-0.1458,-0.1527,-0.1648,-0.1688,-0.1732,-0.1852,-0.1879,-0.1968,-0.1984,-0.1999,-0.2036,-0.2018,-0.2,-0.1959,-0.187,-0.1807,-0.1766,-0.1884,-0.1854,-0.1642,-0.1637,-0.1648,-0.1645,-0.1642,-0.164,-0.1638,0,-0.1338,-0.1367,-0.1506,-0.1544,-0.1606,-0.1692,-0.1738,-0.1854,-0.1877,-0.1976,-0.1956,-0.2,-0.1994,-0.1872,-0.187,-0.1798,-0.1759,-0.1737,-0.1664,-0.1657,-0.1625,-0.1624,-0.1623,-0.1634,-0.1633,-0.1632,-0.1631,0,-0.1257,-0.1321,-0.1376,-0.1458,-0.1524,-0.1591,-0.1667,-0.1678,-0.1786,-0.1887,-0.1858,-0.1836,-0.1825,-0.178,-0.176,-0.1693,-0.1751,-0.1707,-0.1711,-0.1642,-0.1639,-0.161,-0.1612,-0.1622,-0.1623,-0.1624,-0.1625,0,-0.1191,-0.121,-0.1289,-0.1347,-0.1426,-0.1455,-0.1522,-0.155,-0.1598,-0.1708,-0.1688,-0.1732,-0.1795,-0.1727,-0.1689,-0.164,-0.1591,-0.1518,-0.1531,-0.1542,-0.1483,-0.1462,-0.1376,0,0,0,0,0,-0.1113,-0.112,-0.1168,-0.1229,-0.1302,-0.1347,-0.1449,-0.1516,-0.162,-0.1551,-0.1618,-0.1591,-0.1553,-0.1583,-0.1502,-0.1631,-0.1599,-0.153,-0.1523,-0.1568,-0.1579,-0.1517,0,0,0,0,0,0,-0.1061,-0.1097,-0.1122,-0.111,-0.1125,-0.1192,-0.1251,-0.1332,-0.1309,-0.1417,-0.1403,-0.1486,-0.1472,-0.1563,-0.1462,-0.147,-0.1431,-0.1568,-0.1564,-0.1562,-0.1572,-0.1581,-0.1521,0,0,0,0,0]},{"header":{"parameterUnit":"m.s-1","parameterCategory":2,"la1":30.2991,"la2":30.254,"lo1":-89.0895,"lo2":-89.0444,"dy":0.0017,"dx":0.0017,"nx":28,"ny":28,"refTime":"2025-03-26T03:00:00:Z","depth":"4","parameterNumber":3,"parameterNumberName":"V-component_of_CURRENTS"},"data":[0,0,0,0,0,0,0,0,0,0,0,0,0,0,0,0,0,0,0,0,0,0,0,0,0,0,0,0,0,0,0,0,0,0,0,0,0,0,0,0,0,0,0,0,0,0,0,0,0,0,0,0,0,0,0,0,0,0,-0.0169,-0.0169,0,-0.0179,-0.0179,-0.018,-0.0192,-0.0193,-0.0193,-0.0193,-0.0306,-0.0308,-0.0311,0,0,0,0,0,0,0,0,0,0,0,0,0,-0.0183,-0.0182,-0.0169,-0.0169,-0.0169,-0.0179,-0.0179,-0.018,-0.0192,-0.0193,-0.0193,-0.0193,-0.0305,-0.0308,-0.0311,0,0,0,0,0,0,0,0,0,0,0,0,0,-0.0183,-0.0182,-0.0169,-0.0177,-0.0178,-0.0179,-0.0179,-0.018,-0.0192,-0.0193,-0.0193,-0.0193,-0.0304,-0.0308,-0.0312,-0.0332,0,0,-0.0325,-0.0327,0,0,0,0,0,0,0,0,-0.0183,-0.0183,-0.0175,-0.0176,-0.0177,-0.0185,-0.0226,-0.0236,-0.0192,-0.0187,-0.0193,-0.0193,-0.0275,-0.0281,-0.0281,-0.0338,-0.0342,-0.0325,-0.0328,-0.033,-0.0331,0,0,0,0,0,0,0,-0.0183,-0.0182,-0.0173,-0.0176,-0.0177,-0.0187,-0.0188,-0.0227,-0.0231,-0.0187,-0.0188,-0.0189,-0.0276,-0.0277,-0.0284,-0.0344,-0.0325,-0.0329,-0.0332,-0.0333,-0.0416,-0.0416,0,0,0,0,0,0,-0.018,-0.0182,-0.0173,-0.0173,-0.0181,-0.0187,-0.0187,-0.0182,-0.0228,-0.0235,-0.0189,-0.019,-0.0269,-0.0279,-0.0288,-0.0328,-0.033,-0.0334,-0.0336,-0.0416,-0.0416,-0.0416,0,0,0,0,0,0,-0.018,-0.0179,-0.0172,-0.0179,-0.0178,-0.0186,-0.0181,-0.0182,-0.0187,-0.0228,-0.0237,-0.0193,-0.027,-0.0282,-0.0313,-0.0333,-0.0335,-0.0339,-0.0417,-0.0416,-0.0416,-0.0401,0,0,0,0,0,0,-0.018,-0.0179,-0.0181,-0.0178,-0.0178,-0.0181,-0.018,-0.0182,-0.0187,-0.0189,-0.0235,-0.0245,-0.0271,-0.0307,-0.0318,-0.0338,-0.0343,-0.0417,-0.0417,-0.0416,-0.0402,-0.04,-0.0398,0,0,0,0,0,-0.0181,-0.0186,-0.018,-0.018,-0.0178,-0.0181,-0.0183,-0.0189,-0.0187,-0.0194,-0.0211,-0.0244,-0.0311,-0.031,-0.0323,-0.0345,-0.0418,-0.0417,-0.0416,-0.0403,-0.04,-0.0398,0,0,0,0,0,0,-0.0202,-0.0188,-0.0182,-0.0184,-0.0184,-0.0184,-0.0191,-0.019,-0.0206,-0.0208,-0.0241,-0.0253,-0.0288,-0.0311,-0.0309,-0.0363,-0.037,-0.0371,-0.0355,-0.0353,-0.0352,-0.0351,-0.0346,0,0,0,0,0,-0.0203,-0.0201,-0.019,-0.0196,-0.0191,-0.0189,-0.0192,-0.0192,-0.0202,-0.0209,-0.0235,-0.0263,-0.0294,-0.0317,-0.0346,-0.038,-0.0368,-0.04,-0.0399,-0.0397,-0.0403,-0.0388,-0.0385,-0.0413,-0.0413,-0.0413,0,0,-0.0217,-0.0207,-0.0209,-0.02,-0.0198,-0.02,-0.0192,-0.0195,-0.0205,-0.0222,-0.0246,-0.0262,-0.0299,-0.033,-0.0349,-0.0355,-0.0375,-0.0396,-0.0395,-0.0401,-0.0387,-0.0384,-0.0382,-0.0413,-0.0413,-0.0413,0,0,-0.0244,-0.0227,-0.0234,-0.0228,-0.0221,-0.0214,-0.0214,-0.0208,-0.0214,-0.0231,-0.0242,-0.0259,-0.0311,-0.0331,-0.0352,-0.0358,-0.0364,-0.0372,-0.0373,-0.0358,-0.0356,-0.0354,-0.0302,-0.0295,-0.0375,-0.0375,-0.0375,0,-0.0262,-0.0265,-0.0241,-0.0243,-0.0245,-0.0219,-0.0231,-0.0228,-0.0236,-0.0244,-0.0241,-0.0283,-0.0313,-0.0348,-0.0346,-0.0358,-0.0334,-0.0381,-0.0356,-0.0354,-0.0352,-0.03,-0.0293,-0.0374,-0.0375,-0.0375,-0.0375,0,-0.0291,-0.0294,-0.0297,-0.0287,-0.0283,-0.0289,-0.0272,-0.0268,-0.0264,-0.0266,-0.0287,-0.03,-0.0326,-0.0336,-0.0349,-0.0356,-0.0335,-0.0352,-0.0362,-0.0349,-0.0293,-0.0286,-0.0373,-0.0374,-0.0374,-0.0374,0,0,-0.0331,-0.0322,-0.0324,-0.0332,-0.0306,-0.0311,-0.0306,-0.0307,-0.0307,-0.0307,-0.0316,-0.0348,-0.0337,-0.0357,-0.0364,-0.0353,-0.0307,-0.0346,-0.0346,-0.0294,-0.024,-0.0199,-0.0187,-0.0318,-0.0317,-0.0317,-0.0194,0,-0.0366,-0.0392,-0.0369,-0.0393,-0.0403,-0.0367,-0.0367,-0.0358,-0.0343,-0.0339,-0.0339,-0.0352,-0.0352,-0.0355,-0.0343,-0.0321,-0.0293,-0.0337,-0.0261,-0.0258,-0.0225,-0.018,-0.0315,-0.0189,-0.0187,-0.0186,-0.0185,0,-0.0399,-0.0414,-0.0448,-0.0448,-0.0447,-0.0453,-0.0436,-0.0433,-0.0405,-0.0391,-0.038,-0.0366,-0.035,-0.0349,-0.029,-0.0314,-0.0276,-0.025,-0.0246,-0.0214,-0.0206,-0.0213,-0.0172,-0.0173,-0.0174,-0.0175,-0.0176,0,-0.0448,-0.0465,-0.05,-0.0501,-0.0493,-0.0501,-0.0493,-0.0461,-0.0459,-0.0419,-0.0404,-0.0372,-0.0352,-0.0308,-0.0238,-0.0263,-0.0152,-0.0184,-0.0104,-0.0099,-0.0182,-0.0186,-0.0139,-0.0139,-0.0139,-0.014,-0.014,0,-0.0488,-0.0515,-0.0532,-0.055,-0.0587,-0.0556,-0.0573,-0.0545,-0.0511,-0.0505,-0.0442,-0.0415,-0.0342,-0.0268,-0.0219,-0.0116,-0.013,-0.0088,-0.0068,-0.0172,-0.0177,-0.0174,-0.018,-0.0135,-0.0136,-0.0137,-0.0138,0,-0.0528,-0.0539,-0.0584,-0.0602,-0.0613,-0.0639,-0.0635,-0.0636,-0.0584,-0.0565,-0.0551,-0.0443,-0.0327,-0.0228,-0.0126,-0.0083,0.0,0.0036,-0.0035,-0.0024,0.0041,0.0035,0.0133,0.0136,0.0138,0.014,0.0141,0,-0.0548,-0.0578,-0.0634,-0.0669,-0.0684,-0.0714,-0.0727,-0.0688,-0.0675,-0.0583,-0.0574,-0.0442,-0.0362,-0.0156,-0.0063,0.0087,0.0082,0.0142,0.0046,0.0059,0.0068,0.0058,0.0049,0.0144,0.0145,0.0145,0.0146,0,-0.0587,-0.0612,-0.0651,-0.0729,-0.0769,-0.0799,-0.0809,-0.0802,-0.0736,-0.0698,-0.0572,-0.0445,-0.0294,-0.0141,0.0006,0.0087,0.0109,0.0162,0.0157,0.0067,0.0073,0.0077,0.0066,0.0153,0.0152,0.0151,0.0151,0,-0.0613,-0.0655,-0.0714,-0.0775,-0.0835,-0.086,-0.0858,-0.0816,-0.0785,-0.0666,-0.0626,-0.0448,-0.0337,-0.0138,-0.0023,0.0097,0.0089,0.0087,0.0085,0.0079,0.0015,0.0011,0.0103,0,0,0,0,0,-0.063,-0.0681,-0.0751,-0.0816,-0.0875,-0.0902,-0.0899,-0.0876,-0.0814,-0.0731,-0.0669,-0.0521,-0.0294,-0.0188,-0.0064,-0.0023,0.0088,0.0122,0.0079,0.0192,0.0184,0.012,0,0,0,0,0,0,-0.0644,-0.0716,-0.0754,-0.0835,-0.0884,-0.0933,-0.0931,-0.0886,-0.0818,-0.0738,-0.061,-0.0517,-0.0296,-0.0372,-0.0072,-0.0032,-0.0048,0.0237,0.0239,0.0196,0.0189,0.0182,0.0114,0,0,0,0,0]}]]